Flag for Malaysia Weather past 2 weeks in Kuala Lumpur, Malaysia

Now
88 °F

Broken clouds.


Feels Like: 96 °F
Forecast: 75 / 91 °F
Wind: 15 mph from Southwest

Location: Sultan Abdul Aziz Shah-Subang

Current Time: Sep 2, 2014 at 3:07:19 PM

Latest Report: Sep 2, 2014 at 2:00 PM


Visibility: N/A

Pressure: 29.83 "Hg

Humidity: 62%

Dew point: 73 °F

Location of Kuala LumpurLocation

Historic Weather in Kuala Lumpur — Graph

°F

Kuala Lumpur temperature yesterday

Maximum temperature yesterday: 95 °F (at 3:00 PM)
Minimum temperature yesterday: 77 °F (at 5:00 AM)
Average temperature yesterday: 85 °F

Past Weeks' High & Low Weather Summary

 TemperatureHumidityPressure
High95 °F (Sep 1, 3:00 PM)94% (Aug 19, 2:00 PM)29.95 "Hg (Aug 19, 2:00 PM)
Low73 °F (Aug 26, 4:00 AM)44% (Sep 1, 3:00 PM)29.71 "Hg (Aug 22, 4:00 PM)
Average82 °F77%29.82 "Hg
* Reported Aug 18 1:00 PM — Sep 2 1:00 PM, Kuala Lumpur, Weather by CustomWeather, © 2014

Note: Actual official high and low records may vary slightly from our data, if they occured in-between our weather recording intervals... More about our weather records

Advertising

Kuala Lumpur weather history for previous 24 hours

 ConditionsComfort  
Time TempWeatherWind HumidityBarometerVisibility
1:00 PM
Sep 2
91 °FBroken clouds.5 mph52%29.86 "HgN/A
12:00 PM90 °FPartly sunny.7 mph59%29.86 "HgN/A
11:00 AM88 °FPartly sunny.3 mph62%29.89 "HgN/A
10:00 AM84 °FPartly sunny.2 mph70%29.89 "HgN/A
9:00 AM81 °FPartly sunny.8 mph79%29.89 "Hg5 mi
8:00 AM79 °FBroken clouds.No wind89%29.86 "Hg3 mi
7:00 AM79 °FPartly cloudy.2 mph89%29.83 "Hg4 mi
6:00 AM79 °FPassing clouds.3 mph89%29.80 "Hg4 mi
5:00 AM79 °FPassing clouds.No wind89%29.80 "Hg4 mi
4:00 AM79 °FPassing clouds.No wind89%29.80 "Hg4 mi
3:00 AM81 °FPartly cloudy.No wind84%29.83 "Hg4 mi
2:00 AM81 °FPassing clouds.No wind84%29.83 "Hg4 mi
1:00 AM82 °FPassing clouds.1 mph79%29.83 "HgN/A
12:00 AM82 °FPassing clouds.2 mph79%29.83 "HgN/A
11:00 PM
Sep 1
84 °FPartly cloudy.3 mph70%29.83 "HgN/A
10:00 PM86 °FPassing clouds.2 mph66%29.80 "HgN/A
9:00 PM86 °FPartly cloudy.7 mph62%29.80 "HgN/A
8:00 PM88 °FPartly cloudy.8 mph59%29.74 "HgN/A
7:00 PM90 °FBroken clouds.7 mph55%29.71 "HgN/A
6:00 PM91 °FBroken clouds.10 mph52%29.71 "HgN/A
5:00 PM93 °FBroken clouds.9 mph53%29.71 "HgN/A
4:00 PM93 °FBroken clouds.9 mph53%29.71 "HgN/A
3:00 PM95 °FBroken clouds.6 mph44%29.74 "HgN/A
Weather by CustomWeather, © 2014

See weather overviewHow to use our weather pages